Location: Ariel
(45.9570°N, 122.5700°W)
Time: 12:50:52
(UTC-07:00)

Transit 4A - Pass Details

Date: 24 July 2019
Orbit: 863 x 981 km, 66.8° (Epoch: 17 August)

Event Time Altitude Azimuth Distance (km) Brightness Sun altitude
Rises 12:13:40 0° 315° (NW) 3,656 10.7 60.8°
Reaches altitude 10° 12:16:57 10° 299° (WNW) 2,686 10.2 61.1°
Maximum altitude 12:21:12 19° 256° (WSW) 2,053 9.9 61.4°
Drops below altitude 10° 12:25:23 10° 212° (SSW) 2,618 10.6 61.8°
Sets 12:28:33 0° 196° (SSW) 3,533 11.2 62.0°
